• In Austria
  • List of Countries
  • For 7 days
  • Water Temperature
  • Satellite Maps
  • Weather Map
  • News
  • Weather Widgets
  • user-avatar
    Login

    Hourly Weather Sidi Bu-l-Abbas

    Today, 25 June, Monday

    Time Temperature Precipitation Wind Pressure Humidity
    00:00 +27°C° 0 mm 3 mps 719 mmHg 59%
    01:00 +26°C° 0 mm 3 mps 719 mmHg 63%
    02:00 +25°C° 0 mm 3 mps 719 mmHg 67%
    03:00 +24°C° 0 mm 2 mps 719 mmHg 72%
    04:00 +24°C° 0 mm 2 mps 719 mmHg 73%
    05:00 +24°C° 0 mm 2 mps 719 mmHg 74%
    06:00 +24°C° 0 mm 2 mps 719 mmHg 75%
    07:00 +25°C° 0 mm 2 mps 720 mmHg 69%
    08:00 +26°C° 0 mm 2 mps 720 mmHg 63%
    09:00 +27°C° 0 mm 2 mps 720 mmHg 57%
    10:00 +29°C° 0 mm 3 mps 720 mmHg 52%
    11:00 +30°C° 0 mm 3 mps 720 mmHg 48%
    12:00 +33°C° 0 mm 3 mps 720 mmHg 43%
    13:00 +33°C° 0 mm 4 mps 720 mmHg 44%
    14:00 +33°C° 0 mm 5 mps 720 mmHg 45%
    15:00 +33°C° 0 mm 5 mps 720 mmHg 46%
    16:00 +32°C° 0 mm 5 mps 720 mmHg 50%
    17:00 +29°C° 0 mm 4 mps 720 mmHg 54%
    18:00 +28°C° 0 mm 4 mps 720 mmHg 58%
    19:00 +27°C° 0 mm 3 mps 720 mmHg 62%
    20:00 +26°C° 0 mm 3 mps 720 mmHg 66%
    21:00 +25°C° 0 mm 2 mps 721 mmHg 70%
    22:00 +25°C° 0 mm 2 mps 721 mmHg 72%
    23:00 +24°C° 0 mm 2 mps 721 mmHg 74%

    Tomorrow, 26 June, Tuesday

    Time Temperature Precipitation Wind Pressure Humidity
    00:00 +24°C° 0 mm 2 mps 721 mmHg 75%
    01:00 +24°C° 0 mm 2 mps 721 mmHg 77%
    02:00 +23°C° 0 mm 2 mps 721 mmHg 78%
    03:00 +23°C° 0 mm 1 mps 721 mmHg 80%
    04:00 +23°C° 0 mm 1 mps 721 mmHg 80%
    05:00 +23°C° 0 mm 1 mps 721 mmHg 80%
    06:00 +22°C° 0 mm 1 mps 721 mmHg 81%
    07:00 +24°C° 0 mm 1 mps 721 mmHg 72%
    08:00 +25°C° 0 mm 1 mps 721 mmHg 64%
    09:00 +27°C° 0 mm 1 mps 722 mmHg 56%
    10:00 +28°C° 0 mm 2 mps 722 mmHg 51%
    11:00 +30°C° 0 mm 3 mps 722 mmHg 45%
    12:00 +31°C° 0 mm 3 mps 721 mmHg 39%
    13:00 +33°C° 0 mm 4 mps 721 mmHg 39%
    14:00 +33°C° 0 mm 4 mps 721 mmHg 39%
    15:00 +33°C° 0 mm 5 mps 721 mmHg 39%
    16:00 +32°C° 0 mm 4 mps 720 mmHg 43%
    17:00 +30°C° 0 mm 4 mps 720 mmHg 46%
    18:00 +29°C° 0 mm 4 mps 720 mmHg 50%
    19:00 +28°C° 0 mm 3 mps 720 mmHg 54%
    20:00 +27°C° 0 mm 3 mps 721 mmHg 57%
    21:00 +26°C° 0 mm 2 mps 721 mmHg 61%
    22:00 +26°C° 0 mm 2 mps 721 mmHg 62%
    23:00 +25°C° 0 mm 1 mps 721 mmHg 64%

    Day after tomorrow, 27 June, Wednesday

    Time Temperature Precipitation Wind Pressure Humidity
    00:00 +25°C° 0 mm 1 mps 721 mmHg 65%
    01:00 +25°C° 0 mm 1 mps 721 mmHg 66%
    02:00 +24°C° 0 mm 1 mps 721 mmHg 67%
    03:00 +24°C° 0 mm 1 mps 721 mmHg 69%
    04:00 +24°C° 0 mm 1 mps 721 mmHg 68%
    05:00 +24°C° 0 mm 1 mps 721 mmHg 68%
    06:00 +24°C° 0 mm 1 mps 721 mmHg 67%
    07:00 +25°C° 0 mm 1 mps 721 mmHg 61%
    08:00 +26°C° 0 mm 2 mps 721 mmHg 54%
    09:00 +28°C° 0 mm 2 mps 721 mmHg 47%
    10:00 +29°C° 0 mm 2 mps 721 mmHg 43%
    11:00 +30°C° 0 mm 3 mps 721 mmHg 40%
    12:00 +33°C° 0 mm 3 mps 721 mmHg 36%
    13:00 +33°C° 0 mm 4 mps 720 mmHg 35%
    14:00 +33°C° 0 mm 4 mps 720 mmHg 35%
    15:00 +34°C° 0 mm 5 mps 719 mmHg 35%
    16:00 +33°C° 0 mm 5 mps 719 mmHg 37%
    17:00 +30°C° 0 mm 4 mps 719 mmHg 40%
    18:00 +29°C° 0 mm 4 mps 719 mmHg 43%
    19:00 +29°C° 0 mm 3 mps 719 mmHg 45%
    20:00 +28°C° 0 mm 2 mps 719 mmHg 47%
    21:00 +27°C° 0 mm 1 mps 720 mmHg 49%
    22:00 +27°C° 0 mm 1 mps 719 mmHg 49%
    23:00 +26°C° 0 mm 1 mps 719 mmHg 50%

    28 June, Thursday

    Time Temperature Precipitation Wind Pressure Humidity
    00:00 +26°C° 0 mm 1 mps 719 mmHg 51%
    01:00 +26°C° 0 mm 1 mps 719 mmHg 53%
    02:00 +25°C° 0 mm 1 mps 719 mmHg 55%
    03:00 +25°C° 0 mm 1 mps 718 mmHg 57%
    04:00 +25°C° 0 mm 1 mps 718 mmHg 56%
    05:00 +25°C° 0 mm 1 mps 718 mmHg 56%
    06:00 +25°C° 0 mm 1 mps 718 mmHg 55%
    07:00 +26°C° 0 mm 1 mps 718 mmHg 50%
    08:00 +27°C° 0 mm 2 mps 718 mmHg 45%
    09:00 +29°C° 0 mm 2 mps 718 mmHg 40%
    10:00 +30°C° 0 mm 2 mps 718 mmHg 37%
    11:00 +33°C° 0 mm 3 mps 718 mmHg 33%
    12:00 +34°C° 0 mm 3 mps 717 mmHg 29%
    13:00 +34°C° 0 mm 4 mps 717 mmHg 30%
    14:00 +34°C° 0 mm 5 mps 716 mmHg 32%
    15:00 +34°C° 0 mm 6 mps 716 mmHg 33%
    16:00 +33°C° 0 mm 5 mps 716 mmHg 35%
    17:00 +30°C° 0 mm 5 mps 715 mmHg 38%
    18:00 +29°C° 0 mm 4 mps 715 mmHg 40%
    19:00 +28°C° 0 mm 4 mps 715 mmHg 41%
    20:00 +27°C° 0 mm 3 mps 716 mmHg 43%
    21:00 +26°C° 0 mm 2 mps 716 mmHg 44%
    22:00 +26°C° 0 mm 2 mps 716 mmHg 46%
    23:00 +26°C° 0 mm 2 mps 716 mmHg 48%

    29 June, Friday

    Time Temperature Precipitation Wind Pressure Humidity
    00:00 +25°C° 0 mm 2 mps 716 mmHg 49%
    01:00 +25°C° 0 mm 2 mps 716 mmHg 51%
    02:00 +24°C° 0 mm 2 mps 715 mmHg 53%
    03:00 +24°C° 0 mm 2 mps 715 mmHg 55%
    04:00 +24°C° 0 mm 2 mps 715 mmHg 54%
    05:00 +24°C° 0 mm 2 mps 715 mmHg 54%
    06:00 +24°C° 0 mm 2 mps 716 mmHg 53%
    07:00 +25°C° 0 mm 2 mps 716 mmHg 47%
    08:00 +26°C° 0 mm 2 mps 716 mmHg 41%
    09:00 +28°C° 0 mm 3 mps 716 mmHg 36%
    10:00 +29°C° 0 mm 3 mps 716 mmHg 33%
    11:00 +30°C° 0 mm 3 mps 716 mmHg 30%
    12:00 +31°C° 0 mm 3 mps 716 mmHg 28%
    13:00 +33°C° 0 mm 4 mps 715 mmHg 27%
    14:00 +33°C° 0 mm 5 mps 715 mmHg 27%
    15:00 +34°C° 0 mm 6 mps 714 mmHg 27%
    16:00 +32°C° 0 mm 5 mps 714 mmHg 31%
    17:00 +30°C° 0 mm 4 mps 714 mmHg 35%
    18:00 +28°C° 0 mm 3 mps 714 mmHg 40%
    19:00 +28°C° 0 mm 2 mps 715 mmHg 42%
    20:00 +27°C° 0 mm 2 mps 715 mmHg 44%
    21:00 +26°C° 0 mm 1 mps 716 mmHg 47%
    22:00 +26°C° 0 mm 1 mps 716 mmHg 49%
    23:00 +25°C° 0 mm 1 mps 716 mmHg 51%

    30 June, Saturday

    Time Temperature Precipitation Wind Pressure Humidity
    00:00 +25°C° 0 mm 1 mps 716 mmHg 53%
    01:00 +24°C° 0 mm 1 mps 716 mmHg 56%
    02:00 +24°C° 0 mm 2 mps 715 mmHg 59%
    03:00 +23°C° 0 mm 2 mps 715 mmHg 63%
    04:00 +23°C° 0 mm 2 mps 716 mmHg 63%
    05:00 +23°C° 0 mm 2 mps 716 mmHg 63%
    06:00 +23°C° 0 mm 2 mps 717 mmHg 64%
    07:00 +24°C° 0 mm 2 mps 717 mmHg 58%
    08:00 +26°C° 0 mm 2 mps 717 mmHg 53%
    09:00 +27°C° 0 mm 3 mps 718 mmHg 47%
    10:00 +28°C° 0 mm 3 mps 718 mmHg 43%
    11:00 +30°C° 0 mm 4 mps 718 mmHg 39%
    12:00 +33°C° 0 mm 4 mps 718 mmHg 35%
    13:00 +33°C° 0 mm 5 mps 718 mmHg 37%
    14:00 +33°C° 0 mm 6 mps 717 mmHg 39%
    15:00 +33°C° 0 mm 6 mps 717 mmHg 40%
    16:00 +32°C° 0 mm 5 mps 717 mmHg 44%
    17:00 +29°C° 0 mm 4 mps 717 mmHg 48%
    18:00 +28°C° 0 mm 3 mps 717 mmHg 52%
    19:00 +28°C° 0 mm 3 mps 718 mmHg 54%
    20:00 +27°C° 0 mm 2 mps 718 mmHg 57%
    21:00 +26°C° 0 mm 2 mps 719 mmHg 60%
    22:00 +26°C° 0 mm 1 mps 719 mmHg 61%
    23:00 +25°C° 0 mm 1 mps 719 mmHg 62%
    Show more